Location: Hope
(40.9110°N, 74.9680°W)
Time: 12:47:25
(UTC-05:00)

FORTE - Pass Details

Date: 14 December 2021
Orbit: 785 x 822 km, 70.0° (Epoch: 22 January)

Event Time Altitude Azimuth Distance (km) Brightness Sun altitude
Exits shadow 05:09:46 19° 352° (N) 1,843 8.8 -23.2°
Drops below altitude 10° 05:11:34 10° 6° (N) 2,377 9.5 -22.8°
Sets 05:14:19 0° 17° (NNE) 3,318 10.4 -22.3°
